Location: Boone Canyon
(38.3180°N, 119.2504°W)
Time: 18:14:09
(UTC+00:00)

IDEFIX/ARIANE 42P - Pass Details

Date: 18 September 2020
Orbit: 786 x 802 km, 98.4° (Epoch: 19 October)

Event Time Altitude Azimuth Distance (km) Brightness Sun altitude
Rises 12:20:12 0° 355° (N) 3,320 5.9 -16.6°
Reaches altitude 10° 12:23:12 10° 338° (NNW) 2,385 5.0 -16.0°
Maximum altitude 12:26:42 18° 296° (WNW) 1,860 4.1 -15.4°
Enters shadow 12:27:17 18° 288° (WNW) 1,876 4.0 -15.3°
